Location: Spring Creek
(38.2870°N, 100.2160°W)
Time: 23:46:58
(UTC+00:00)

Cosmos 1174 - Pass Details

Date: 08 May 2021
Orbit: 372 x 1142 km, 66.1° (Epoch: 21 June)

Event Time Altitude Azimuth Distance (km) Brightness Sun altitude
Rises 02:21:09 0° 328° (NNW) 2,686 8.6 -8.4°
Reaches altitude 10° 02:23:32 10° 326° (NW) 1,680 7.5 -8.8°
Maximum altitude 02:27:09 65° 244° (WSW) 477 3.6 -9.4°
Drops below altitude 10° 02:30:14 10° 161° (SSE) 1,434 5.5 -9.9°
Enters shadow 02:30:24 - 161° (SSE) 1,504 5.6 -9.9°
